Location: Cudham
(51.3000°N, 0.0667°E)
Time: 21:06:18
(UTC+00:00)

Cosmos 783 Rocket - Pass Details

Date: 19 May 2025
Orbit: 753 x 777 km, 74.1° (Epoch: 21 June)

Event Time Altitude Azimuth Distance (km) Brightness Sun altitude
Exits shadow 22:47:05 20° 205° (SSW) 1,692 5.9 -17.1°
Maximum altitude 22:50:43 86° 293° (WNW) 767 4.5 -17.3°
Drops below altitude 10° 22:55:58 10° 24° (NNE) 2,306 7.7 -17.5°
Sets 22:58:22 0° 25° (NNE) 3,240 8.6 -17.6°
